Theta_e
319 318 317 316 315 315 314 313 314 314 315 318 319 320 320 320 318 314 313 314 313 312 315 316 317 312 301 298 296 301 307 306 306 309 307 306 305 302 298 298 298 296 293 292 291 291 291
319 318 317 316 315 314 313 313 313 313 313 313 316 318 318 319 315 313 315 315 314 314 315 316 315 309 299 293 299 300 299 303 303 306 305 307 305 304 298 295 296 294 294 292 292 291 290
318 318 318 316 315 314 313 312 312 312 312 311 311 313 314 315 315 314 314 315 313 314 315 314 309 299 297 293 298 300 299 301 302 303 305 305 306 303 300 295 296 295 293 293 292 292 290
318 317 318 317 316 314 313 312 311 311 311 310 309 309 311 313 313 314 313 314 313 313 311 312 304 299 292 297 303 299 300 303 303 303 305 305 306 301 298 298 295 294 295 292 292 292 289
319 318 318 317 316 314 313 312 311 310 310 309 309 308 309 312 312 312 311 312 311 310 308 306 299 297 290 302 296 297 297 297 300 302 303 305 304 299 297 296 293 293 291 289 289 291 291
320 319 317 318 316 315 314 312 311 309 309 307 308 307 310 311 311 310 310 309 307 307 300 297 296 295 293 290 294 295 296 297 297 301 301 302 301 298 297 295 287 288 288 288 288 288 289
321 319 318 317 317 315 314 313 311 309 308 306 307 309 309 310 310 309 305 302 298 298 294 287 287 288 290 293 295 294 293 295 298 297 294 294 295 291 291 291 289 289 288 288 289 285 285
322 321 319 318 317 316 315 313 311 309 307 305 308 308 309 309 308 304 300 296 293 296 288 291 289 289 291 291 291 292 295 292 293 289 289 292 287 285 288 287 288 287 286 287 286 283 283
322 322 320 318 317 316 315 314 312 309 307 308 308 308 308 309 307 303 298 296 301 297 292 289 289 288 289 291 286 288 291 289 288 286 286 285 283 283 284 285 285 285 285 284 283 283 282
322 322 321 320 318 317 317 315 312 310 308 307 306 307 309 308 303 300 296 299 302 298 293 288 287 288 290 289 286 290 290 289 286 284 283 283 282 282 283 281 282 281 281 280 279 280 281
323 322 321 320 319 318 317 316 313 310 308 307 306 307 306 307 299 298 297 301 303 299 286 286 287 292 290 287 286 287 289 289 284 283 283 280 280 280 281 279 281 279 281 279 279 279 278
323 322 321 320 319 318 317 316 314 312 308 306 306 308 305 301 302 299 302 303 301 293 286 285 286 285 286 286 285 287 286 289 287 284 284 280 282 282 281 281 281 282 280 279 279 279 278
323 322 321 320 319 318 317 316 314 312 308 308 307 305 302 299 298 301 303 300 294 289 287 284 284 285 284 283 284 284 283 283 283 282 281 280 279 281 281 280 282 281 280 282 280 281 281
323 322 321 320 319 318 317 316 315 311 308 306 304 300 296 296 298 301 301 299 288 288 286 284 284 283 283 282 283 283 283 283 282 282 281 281 280 279 280 280 279 279 279 281 277 278 281
323 322 321 320 319 319 318 317 315 311 309 305 302 294 294 296 296 300 300 293 292 292 287 284 283 283 282 282 283 283 282 282 281 281 284 281 279 279 279 280 280 279 279 280 276 273 274
322 322 321 320 320 319 318 316 315 311 308 304 294 292 291 294 296 300 298 294 292 287 285 286 289 286 284 283 284 284 282 281 281 281 283 280 282 277 278 280 281 279 280 278 279 275 275
322 322 321 321 320 318 317 316 314 309 306 301 296 293 293 294 295 297 294 294 288 285 286 286 288 284 286 284 284 283 284 281 281 281 282 281 281 277 277 277 278 277 278 276 278 277 276
320 321 321 321 319 318 317 316 312 307 302 299 296 289 294 294 290 291 293 292 288 284 286 285 286 286 286 283 283 283 283 282 281 282 280 280 281 279 278 275 276 278 277 280 279 276 275
320 321 321 320 318 317 316 315 311 305 302 298 293 291 296 294 290 288 286 284 286 284 284 284 283 284 283 283 284 283 282 280 281 281 281 282 279 279 278 275 276 275 276 274 273 275 276
319 320 320 319 318 317 316 315 309 306 304 301 293 287 289 291 290 290 285 285 283 285 284 284 282 283 282 280 281 282 282 280 280 281 283 283 279 281 279 279 278 275 274 276 277 275 278
318 320 319 318 318 317 316 313 308 306 306 303 297 291 290 284 287 289 290 287 284 283 284 284 281 283 284 281 279 280 283 279 279 281 279 281 279 275 277 276 275 277 278 277 274 278 276
318 317 317 317 317 317 316 311 308 306 308 301 292 289 288 286 288 289 290 286 287 283 284 282 283 283 283 284 287 282 281 279 282 277 279 275 278 271 272 273 270 269 272 275 277 277 278
317 316 316 315 314 315 314 310 307 306 307 297 293 294 294 286 286 288 289 289 288 287 285 285 286 283 280 281 282 277 277 277 280 279 277 276 275 275 276 270 269 271 272 275 276 276 276
314 314 314 314 313 313 312 309 307 307 305 299 297 298 292 285 287 288 288 289 288 288 285 282 284 286 278 278 278 279 275 273 275 272 276 275 277 277 275 271 271 276 269 271 275 275 276
312 312 313 313 312 311 311 308 307 309 303 298 296 298 291 284 286 286 287 286 285 284 281 281 278 278 279 281 282 279 276 273 269 268 271 273 278 275 272 270 275 281 269 272 272 275 275
311 311 311 311 311 312 311 308 307 308 303 297 294 297 292 287 286 288 286 287 285 282 278 275 277 280 280 284 282 277 276 275 272 267 270 272 274 276 268 269 271 274 270 266 267 272 265
309 309 309 310 310 310 311 309 308 307 304 298 291 290 294 285 283 285 287 287 288 285 278 275 276 278 278 282 279 277 276 268 274 270 267 269 271 271 271 270 273 276 269 266 270 273 264
307 308 309 309 309 310 310 309 308 307 303 298 289 288 294 284 278 277 278 283 282 285 282 275 278 276 278 279 280 278 276 272 271 270 268 270 269 269 270 268 266 269 266 272 268 263 264
306 308 310 310 310 309 310 309 307 305 302 299 291 287 284 281 275 277 276 277 276 276 279 275 279 276 282 279 277 274 273 269 273 275 266 271 276 275 275 275 267 268 266 263 264 266 265
Wind_Speed
7 6 5 4 3 3 3 4 4 4 4 6 5 5 6 6 6 5 4 5 6 6 8 8 8 5 2 6 5 8 18 13 4 1 2 2 3 3 4 5 2 4 5 5 4 4 4
9 8 7 5 4 3 3 3 4 4 3 4 4 4 3 4 4 2 4 7 7 7 8 8 8 1 1 4 6 10 12 6 8 4 4 2 3 6 9 5 3 4 8 7 3 4 3
9 9 8 7 5 4 3 3 3 4 3 4 3 2 2 2 2 2 5 8 8 8 8 6 6 3 11 5 5 10 10 4 5 3 3 4 3 1 5 7 6 7 4 5 3 2 2
10 9 9 8 7 6 4 3 3 3 3 3 2 1 2 2 2 3 5 8 8 8 5 3 5 2 6 1 4 9 12 1 7 5 7 7 9 10 3 10 4 2 3 4 3 1 2
12 11 10 9 8 7 5 4 3 2 2 2 2 2 1 1 2 4 6 7 6 1 6 3 1 2 5 4 4 8 7 5 6 3 5 4 4 5 4 4 4 2 1 1 3 1 0
14 12 11 10 9 8 7 5 3 2 2 2 2 1 1 0 2 4 6 3 6 2 5 1 3 2 5 5 5 6 5 5 4 1 2 4 3 3 3 4 2 2 1 1 3 3 3
15 14 12 11 11 9 8 6 5 3 2 1 3 3 2 1 3 4 1 2 4 2 11 6 2 3 2 7 3 8 5 4 1 5 2 3 2 3 5 4 3 3 0 4 1 3 5
17 15 14 13 12 11 10 8 6 4 2 2 3 3 2 2 4 3 1 3 3 3 10 5 3 3 2 3 2 13 10 1 2 4 1 3 4 2 1 2 1 1 1 2 1 1 5
18 17 15 14 13 13 11 10 8 6 4 5 4 1 1 1 2 2 5 5 1 3 4 4 3 3 3 4 4 9 9 2 5 4 5 3 4 2 2 2 1 1 2 1 4 7 0
19 19 17 15 14 13 11 10 9 7 5 6 5 2 1 2 2 1 3 2 1 2 2 4 3 3 1 1 3 3 4 2 3 4 4 6 2 1 1 3 4 2 3 1 2 5 4
20 19 19 18 15 14 13 12 11 8 5 4 4 5 4 2 6 3 4 2 2 3 4 2 2 2 2 3 2 6 2 1 4 4 3 4 2 2 2 2 2 2 0 1 0 1 3
20 19 18 17 17 15 14 13 12 10 6 4 4 7 6 4 3 2 2 2 2 3 5 3 1 1 2 3 2 4 2 5 3 3 10 4 2 3 3 1 1 5 3 2 3 3 3
20 19 18 17 17 17 15 14 13 11 8 6 7 8 4 2 3 5 3 3 3 5 2 4 2 1 2 3 2 4 2 3 0 3 2 2 2 2 2 2 2 3 4 3 3 3 3
22 22 21 20 19 18 17 16 15 14 14 12 8 6 5 3 2 4 3 3 6 2 4 2 3 2 1 2 2 2 2 3 2 1 3 3 4 0 3 3 3 2 3 3 5 3 4
20 21 21 22 22 21 19 18 17 15 15 15 10 2 2 3 2 2 3 4 3 4 6 9 3 3 3 2 1 1 2 1 2 2 1 3 3 1 3 2 4 3 1 2 1 1 3
19 20 22 23 23 23 22 21 20 18 15 12 3 3 1 2 2 2 3 3 3 1 6 3 5 3 6 4 3 3 4 2 2 1 3 2 1 1 3 1 4 3 3 2 2 5 6
14 21 23 25 24 24 24 24 24 22 17 7 4 4 1 3 2 3 4 4 3 1 1 5 5 5 3 4 3 3 4 2 1 2 2 2 2 4 1 3 2 3 2 2 2 3 4
16 17 23 25 25 26 26 27 27 25 19 10 3 3 1 2 4 1 4 5 5 4 1 2 2 2 6 7 4 4 4 2 1 2 3 2 1 3 0 2 3 2 2 4 4 4 1
16 17 21 24 24 27 28 30 31 32 24 7 6 3 2 2 6 4 3 3 2 5 4 4 3 1 1 4 3 2 4 2 1 3 4 5 2 3 4 4 1 5 4 3 4 1 10
14 17 19 22 24 26 29 31 35 35 23 6 4 4 2 2 2 5 7 5 5 2 3 3 4 3 4 3 3 3 4 2 1 2 4 3 3 5 7 2 4 5 6 9 8 6 11
16 18 14 14 20 26 29 34 36 36 29 5 3 3 4 7 6 5 5 7 7 7 1 3 2 3 5 4 3 4 4 3 1 3 2 2 4 2 7 5 5 8 12 14 17 19 13
18 15 11 12 12 22 28 36 38 35 26 3 6 6 2 2 5 9 5 7 10 5 7 5 4 7 5 5 3 7 7 5 4 2 3 2 2 2 5 2 3 6 16 20 21 20 21
15 16 14 13 12 5 20 36 37 36 15 4 1 1 4 3 4 6 6 8 8 12 1 3 5 7 4 4 5 5 7 7 5 5 7 4 4 1 5 4 7 11 15 20 10 8 12
12 14 15 15 15 11 21 27 29 31 6 3 3 4 4 4 5 5 6 4 7 2 8 3 3 3 4 11 14 9 10 10 8 7 5 6 4 2 5 4 7 3 3 2 12 6 14
14 17 17 16 16 21 24 25 29 26 7 3 2 3 4 4 2 3 9 8 11 6 5 4 4 3 12 4 3 1 2 1 4 6 4 5 3 3 4 4 13 8 4 6 7 4 10
16 16 18 17 14 17 26 30 31 22 12 4 3 2 4 8 5 3 5 5 6 5 4 4 3 3 2 2 3 4 5 1 3 3 4 2 3 4 3 5 8 4 4 2 1 9 3
16 16 16 17 16 18 23 28 29 23 12 5 2 5 2 6 1 2 4 5 6 5 5 5 6 3 2 3 4 5 4 3 4 6 6 5 3 11 10 9 12 1 8 5 4 5 2
16 15 17 19 19 19 21 25 27 24 17 5 2 2 2 5 3 6 6 3 3 4 6 7 6 2 3 5 5 4 4 4 3 3 7 9 10 7 6 7 13 8 6 8 3 3 3
16 15 15 17 21 22 22 23 24 22 16 8 4 2 6 10 5 5 8 5 4 3 4 4 2 5 5 4 2 3 3 4 4 4 2 6 7 5 12 7 3 4 4 3 2 3 1
Wind_Direction
194 188 184 173 156 126 101 89 80 82 97 105 103 107 117 117 114 92 53 21 2 352 342 342 345 346 212 69 49 325 329 332 346 53 52 119 147 129 109 94 95 82 111 68 82 84 72
194 194 192 183 174 145 128 101 92 85 90 98 112 117 133 137 135 72 4 357 350 342 337 338 353 317 224 87 327 326 329 333 25 21 48 16 102 107 97 68 16 93 110 116 108 111 130
198 198 196 194 186 172 156 120 107 102 97 101 110 135 154 163 193 294 330 339 339 335 330 340 8 69 63 83 327 337 348 4 355 12 90 43 100 75 130 112 128 141 114 137 99 116 100
200 200 200 204 197 191 173 148 126 109 107 98 97 174 194 210 249 286 318 326 327 335 351 353 32 78 77 7 319 4 351 54 21 43 88 76 83 85 39 119 122 162 210 209 102 188 108
201 199 201 203 204 201 191 172 154 124 112 83 102 175 202 221 280 309 318 321 345 2 18 7 25 15 87 332 17 344 6 350 318 65 58 83 77 78 160 183 163 169 225 235 154 110 164
202 201 200 204 205 207 200 190 175 143 111 76 116 142 136 318 320 318 319 310 23 45 2 107 81 142 39 353 322 332 349 340 19 342 118 37 74 135 136 230 297 117 200 216 304 96 246
200 201 201 202 206 208 206 197 186 165 131 104 134 127 104 58 348 356 308 197 222 113 39 52 21 54 358 328 275 7 355 325 19 57 78 33 212 63 32 24 70 106 264 301 7 57 280
191 200 200 201 204 207 205 200 191 176 145 133 159 107 58 36 51 74 64 68 62 88 93 40 54 73 35 331 339 13 353 35 47 94 306 172 89 48 87 93 116 134 248 281 212 73 276
189 191 196 201 202 204 207 199 195 185 167 148 143 128 10 358 119 53 77 109 237 227 76 48 35 25 351 353 54 353 359 13 55 73 37 54 72 322 224 125 197 117 290 327 312 321 86
195 189 191 194 201 204 203 197 196 196 181 160 142 133 282 165 180 129 80 152 232 251 176 40 21 44 1 46 67 329 19 23 66 103 75 70 44 5 70 67 330 280 32 35 343 326 318
196 195 188 188 196 200 196 193 189 192 195 198 156 97 99 202 124 167 120 189 224 244 281 60 51 339 31 51 11 36 348 19 79 99 257 80 37 60 92 60 319 74 328 49 29 248 306
196 197 193 192 186 195 194 191 187 179 178 187 184 145 116 99 90 98 171 175 215 221 248 124 327 343 167 36 57 319 40 55 80 83 50 79 56 15 41 74 6 135 184 149 143 179 213
195 194 192 191 193 187 190 186 180 169 152 135 114 96 73 71 122 147 171 207 221 231 87 151 127 33 63 38 84 23 43 69 65 159 147 142 64 71 342 229 166 236 261 263 229 211 9
199 196 194 193 191 192 188 182 177 167 149 132 121 101 40 45 77 150 196 220 224 109 196 122 136 120 136 340 64 46 132 136 107 191 139 198 183 66 6 18 356 16 323 317 285 285 325
201 202 200 195 191 189 186 177 173 167 159 143 135 60 76 39 335 164 221 223 260 179 139 154 136 182 146 171 295 177 35 83 36 344 272 185 147 110 35 4 331 102 208 26 69 150 261
211 207 199 193 190 189 185 176 167 158 158 159 109 105 62 56 276 182 214 236 197 137 127 164 195 237 176 173 197 199 174 109 128 340 325 142 223 32 68 254 63 350 68 211 148 300 284
216 212 201 198 193 191 184 174 161 153 149 140 67 79 92 56 248 204 215 199 161 202 199 174 177 150 182 175 202 176 137 114 201 107 37 148 303 114 211 190 156 159 189 63 333 313 289
203 218 207 203 196 188 184 175 159 147 129 60 115 150 84 87 191 174 183 170 120 157 241 129 121 118 176 168 164 180 179 80 113 157 153 60 78 236 50 80 322 319 223 217 242 184 220
226 207 218 207 200 191 185 173 160 155 148 128 137 96 354 91 197 178 121 104 133 149 187 164 136 3 69 150 163 168 144 91 128 171 168 179 167 262 185 150 173 238 184 129 93 9 222
232 215 210 213 203 194 187 172 161 161 159 107 135 131 60 6 295 159 149 173 158 27 119 108 122 118 124 120 9 161 155 124 107 130 95 167 175 239 256 52 105 191 207 214 208 218 260
235 209 191 206 211 204 189 168 165 164 167 120 182 169 169 173 218 177 167 146 144 165 97 184 112 212 157 132 141 188 136 145 90 19 65 289 249 222 275 272 234 247 239 222 217 229 243
205 175 174 212 208 209 182 166 165 166 164 99 145 145 44 73 132 142 175 202 166 159 150 191 188 170 174 154 188 180 149 196 200 133 141 5 225 123 263 300 216 252 247 243 243 251 259
166 143 151 133 111 92 173 165 166 165 157 122 152 78 99 113 148 161 193 170 181 136 356 50 148 132 174 140 81 64 66 66 88 159 167 165 161 266 276 327 317 265 232 214 213 219 224
127 137 140 133 124 114 158 162 163 172 125 134 163 111 126 150 190 180 150 132 148 172 134 93 90 122 114 117 109 90 60 62 68 48 24 149 163 211 289 302 253 21 93 324 226 241 221
156 147 148 149 152 150 152 162 167 170 120 90 137 134 118 116 142 112 140 116 99 72 75 85 56 10 150 153 100 117 126 113 39 29 5 359 165 217 270 244 310 267 176 191 184 276 238
169 159 147 141 149 146 168 168 170 167 134 100 74 281 100 115 221 123 124 163 134 112 98 63 50 72 221 169 138 220 229 119 196 122 39 68 13 234 145 247 261 74 151 162 144 269 29
172 163 147 150 160 148 170 173 173 163 139 103 116 39 125 107 31 316 134 169 119 114 98 136 165 169 308 129 172 206 219 359 232 185 152 144 177 222 220 250 276 136 140 147 217 329 71
177 172 171 171 165 154 161 175 174 165 145 96 112 13 97 93 58 17 13 124 120 156 153 145 145 179 148 187 204 185 204 177 214 147 182 174 164 193 200 228 268 128 124 207 59 100 112
184 183 187 184 175 157 156 166 168 152 144 129 98 94 47 71 83 57 73 45 13 26 117 183 45 150 157 135 181 124 169 173 193 240 230 224 217 196 204 217 65 164 47 91 88 62 134